Temperature
25 24 23 24 24 24 24 24 24 24 25 24 24 23 23 23 23 22 22 22 21 20 20 19 19 18 18 18 17 17 17 16 16 16 16 15 15 15 15 15 15 15 15 15
24 23 25 25 25 25 24 24 24 24 25 24 24 24 24 24 23 23 23 22 22 21 20 19 19 18 18 18 17 17 16 16 16 16 16 15 15 15 15 14 14 14 14 14
23 24 25 25 24 24 24 24 24 24 24 25 24 23 24 24 24 23 23 22 22 21 20 19 18 18 18 17 17 17 16 16 16 16 15 15 15 15 14 14 14 14 14 14
24 25 25 24 24 24 23 24 24 24 23 22 23 22 23 24 23 23 23 22 22 21 20 19 18 18 17 17 17 17 16 16 16 15 15 15 15 14 14 14 14 14 14 14
24 25 24 24 24 24 24 24 24 24 23 22 23 23 23 24 23 23 23 22 22 21 20 19 18 18 17 17 17 16 16 16 16 15 15 15 14 14 14 14 14 13 13 13
24 25 25 24 24 24 24 24 23 23 23 21 23 23 23 23 24 23 23 22 21 21 20 19 18 18 17 17 16 16 16 16 16 15 15 15 14 14 14 14 13 13 13 13
24 24 25 24 24 24 24 22 21 21 21 22 24 24 23 24 24 24 23 22 21 20 20 19 18 18 17 17 16 16 16 16 15 15 15 15 14 14 14 14 13 13 13 13
23 23 24 24 23 23 23 23 21 21 21 23 24 23 23 24 24 23 23 22 21 20 19 19 18 17 17 16 16 16 15 15 15 15 15 14 14 14 14 13 13 13 13 13
23 23 24 24 24 24 23 23 24 22 22 22 23 23 23 24 23 23 22 21 21 20 19 19 18 17 17 16 16 16 15 15 15 15 14 14 14 14 14 13 13 13 13 13
23 22 24 24 24 24 24 23 23 22 21 21 22 23 22 22 22 22 22 21 20 20 19 18 18 17 17 16 16 15 15 15 15 14 14 14 14 14 14 13 13 13 13 13
23 22 23 23 23 23 23 23 22 22 21 21 20 21 23 22 22 22 22 21 20 19 19 18 18 17 17 16 16 15 15 15 14 14 14 14 14 14 14 13 13 13 13 12
23 22 22 23 24 24 23 23 22 20 21 21 20 21 23 23 23 22 21 21 20 19 19 18 17 17 16 16 15 15 15 14 14 14 14 14 14 13 13 13 13 12 12 12
21 21 21 21 22 23 23 23 23 22 21 20 20 20 23 22 22 21 21 20 19 19 18 18 17 17 16 16 15 15 15 14 14 14 14 14 13 13 13 13 12 12 12 12
21 21 21 20 21 22 22 22 22 22 20 20 20 21 21 21 21 21 20 20 19 18 18 17 17 16 16 16 15 15 14 14 14 14 13 13 13 13 13 13 12 12 12 12
21 21 21 22 22 22 22 22 22 21 21 20 21 21 21 21 21 21 20 19 19 18 18 17 16 16 16 15 15 14 14 14 14 13 13 13 13 12 12 12 12 12 12 11
21 20 20 21 22 22 21 22 21 21 21 21 21 21 22 21 21 20 20 19 18 18 17 17 16 16 15 15 15 14 14 14 13 13 13 12 12 12 12 12 12 12 11 11
20 20 19 19 21 20 20 21 21 21 21 21 20 21 21 21 20 20 20 19 18 18 17 16 16 16 15 15 14 14 13 13 13 13 12 12 12 12 12 11 11 11 11 11
20 20 19 19 19 18 20 22 22 21 21 22 21 21 21 20 20 19 19 18 18 17 17 16 16 15 15 15 14 14 13 13 13 12 12 12 12 11 11 11 11 11 11 11
20 19 19 18 18 19 20 21 21 20 20 21 21 20 20 20 19 19 18 17 17 17 16 15 15 15 14 14 14 13 13 13 12 12 12 12 11 11 11 11 11 11 10 10
20 20 19 18 17 18 19 21 21 20 19 20 20 19 19 19 17 17 17 17 16 16 15 15 14 14 14 14 13 13 13 12 12 12 12 11 11 11 11 11 10 10 10 10
18 18 18 17 18 18 19 20 20 18 18 20 20 19 18 18 17 17 16 16 15 15 15 14 14 14 13 13 13 13 12 12 12 11 11 11 11 10 10 10 10 10 10 9
18 17 17 17 17 17 19 19 18 18 19 19 18 18 17 17 16 16 15 15 14 14 14 14 13 13 13 12 12 12 12 11 11 11 11 10 10 10 10 10 9 9 9 9
18 18 17 17 17 17 18 18 18 18 18 18 17 17 16 16 15 15 14 14 14 13 13 13 13 12 12 12 11 11 11 11 11 10 10 10 10 9 9 9 9 9 9 8
18 18 17 17 17 17 17 17 17 17 17 16 16 16 16 15 15 14 14 13 13 13 12 12 12 11 11 11 11 11 11 10 10 10 10 10 9 9 9 9 9 8 8 8
16 17 17 16 17 17 16 16 16 16 15 15 15 15 15 14 14 14 13 13 13 12 12 12 11 11 11 10 10 10 10 10 10 9 9 9 9 9 8 8 8 8 8 8
16 16 15 15 16 16 15 15 15 15 15 14 14 14 14 14 13 13 13 12 12 12 11 11 11 10 10 10 10 10 9 9 9 9 9 8 8 8 8 8 8 7 7 7
Wind_Speed
7 6 6 5 4 4 5 5 4 2 2 3 5 6 6 8 8 7 7 8 8 8 9 9 8 7 6 6 6 7 6 5 3 3 2 3 2 2 3 2 4 4 5 6
5 7 4 3 4 5 7 6 5 2 2 4 6 8 6 8 9 8 7 8 8 9 9 9 9 7 6 6 6 7 7 6 5 3 3 2 2 2 3 2 3 4 4 4
6 5 3 5 6 6 7 5 5 4 5 7 7 8 7 7 8 8 8 7 7 8 8 9 9 8 7 6 6 6 6 6 5 4 3 2 2 2 2 2 2 2 3 4
7 6 5 6 6 6 6 4 6 6 6 6 6 5 6 7 8 9 8 7 7 7 8 8 8 8 7 6 6 6 6 6 6 5 4 4 3 2 2 2 2 1 2 3
6 5 5 6 5 6 5 5 7 8 8 9 10 8 5 7 9 9 8 8 7 7 7 8 8 7 6 6 5 5 6 6 6 6 5 4 3 2 2 2 3 2 1 2
8 5 5 5 5 6 5 6 8 9 8 9 11 7 3 4 6 8 8 7 7 7 7 7 8 7 6 6 5 4 5 5 5 6 5 4 4 3 3 3 3 2 1 1
9 8 7 5 6 6 6 6 4 4 6 6 5 4 2 4 4 6 7 7 7 6 7 7 7 8 7 7 6 5 5 5 5 6 6 5 5 4 4 3 3 2 2 1
8 8 8 7 7 6 7 8 5 3 3 3 3 3 3 6 6 7 7 6 6 6 6 6 7 8 7 7 7 6 6 5 5 5 5 5 5 3 3 3 3 3 2 2
5 4 6 6 6 7 7 8 8 7 9 7 4 2 4 7 8 7 6 6 5 5 6 6 6 7 7 7 6 6 5 5 5 4 4 4 5 4 4 3 3 3 3 2
7 6 6 6 6 9 9 8 5 4 4 5 4 3 3 8 9 7 6 6 5 5 5 6 6 6 7 7 6 6 5 5 4 4 4 4 4 4 4 4 4 4 3 3
8 8 6 7 7 7 8 8 6 5 6 4 4 1 3 6 7 7 6 5 5 5 4 4 5 6 6 6 6 5 5 5 4 4 4 4 4 4 4 3 4 4 3 3
5 7 8 9 7 7 7 8 7 5 6 5 5 2 4 6 6 5 4 5 5 4 4 4 4 5 5 6 5 5 5 4 4 4 4 4 4 4 4 3 3 4 4 4
3 5 7 6 6 6 7 8 8 7 6 6 6 2 3 5 5 5 4 5 4 3 4 4 4 4 4 5 5 5 5 4 4 4 3 3 3 4 4 4 4 3 4 4
3 7 8 8 6 5 7 8 9 8 7 8 7 5 3 2 2 3 4 5 4 2 3 3 3 3 4 4 5 5 4 4 4 4 4 3 3 3 3 3 3 4 4 4
4 8 10 10 9 9 9 9 9 11 11 10 10 8 7 3 2 3 3 4 4 3 3 3 3 3 4 3 3 4 4 4 5 4 4 4 4 4 3 3 3 3 3 3
5 7 9 10 9 10 12 11 11 11 12 13 12 9 4 3 2 2 3 3 3 3 2 2 2 3 3 4 4 3 3 4 5 5 4 4 3 3 3 3 3 3 3 3
7 7 8 9 9 10 11 8 9 9 10 10 9 6 2 2 2 1 1 2 2 3 2 1 1 1 2 3 3 3 3 3 4 5 4 4 3 3 4 4 3 3 4 3
9 9 6 7 8 11 5 2 4 6 7 6 4 2 1 1 0 0 1 1 2 2 2 2 1 0 0 1 2 2 2 2 3 4 4 4 4 3 3 3 3 3 3 3
10 8 6 6 9 9 5 3 2 4 6 4 3 0 1 2 0 0 2 2 2 2 3 2 1 1 0 0 1 3 3 3 3 3 4 4 4 3 2 2 2 2 2 2
8 8 8 7 8 7 3 1 1 3 5 1 1 1 1 1 2 1 2 3 4 4 3 2 2 1 1 1 1 2 2 3 3 2 2 2 3 3 3 2 2 2 2 2
6 7 9 10 10 6 1 1 1 3 1 4 2 1 0 2 1 3 4 4 3 3 2 2 2 1 1 0 0 1 2 2 2 1 1 1 2 3 3 2 2 1 2 2
6 5 7 7 8 5 2 1 1 3 4 4 4 3 3 4 4 4 3 3 2 2 2 2 1 1 1 0 1 1 1 1 2 2 1 1 1 2 2 2 2 2 2 2
4 4 3 4 3 2 3 3 4 5 5 4 4 3 3 2 2 2 2 1 1 1 0 0 0 0 0 0 1 1 1 2 2 2 2 2 2 1 2 2 2 2 2 2
4 4 5 6 4 3 4 5 4 5 5 5 4 3 2 1 1 1 1 1 1 0 0 0 0 0 0 0 1 0 1 2 2 3 2 2 2 2 1 1 1 1 1 2
5 5 7 8 5 3 2 3 4 4 4 4 3 3 2 2 2 1 1 1 0 0 0 0 0 0 1 0 0 1 1 2 2 2 2 1 1 2 1 1 0 1 1 2
6 6 6 6 5 4 4 3 3 3 4 3 3 3 2 2 2 1 1 0 0 0 0 0 1 1 1 0 0 0 1 1 2 2 1 1 1 1 1 1 1 2 1 2
Wind_Direction
212 226 229 229 233 264 268 273 271 236 195 213 244 240 209 193 193 204 196 185 180 179 174 166 163 155 156 156 150 141 144 142 129 114 108 102 98 90 79 72 65 50 42 45
220 235 240 253 242 249 260 266 268 264 247 246 250 252 220 200 197 200 199 191 187 179 173 164 164 163 166 163 158 152 154 150 137 126 128 131 124 121 118 94 70 64 59 50
230 238 225 239 244 249 254 266 279 280 287 275 264 259 222 200 196 190 195 190 186 178 172 166 170 170 169 166 164 158 153 145 139 140 127 117 105 107 100 104 85 59 65 64
231 234 235 240 246 260 267 281 285 278 273 272 258 269 232 193 186 186 185 185 183 178 167 160 165 167 170 168 163 159 156 150 149 143 143 143 148 153 158 141 134 117 82 82
239 225 233 245 256 262 274 294 284 273 270 273 262 261 233 180 180 179 173 172 167 161 158 155 164 164 164 159 158 163 158 154 153 150 152 158 153 147 145 130 137 145 120 98
247 235 232 244 252 258 267 271 269 259 261 261 249 241 234 176 166 159 159 157 157 153 153 153 160 155 155 148 149 159 158 154 154 155 157 165 158 155 151 145 152 154 149 168
230 226 216 225 243 225 242 257 257 230 220 239 226 225 182 100 96 132 138 143 144 145 148 152 155 154 155 151 153 158 155 154 160 165 168 175 170 176 167 159 170 169 160 177
241 223 209 204 231 238 235 241 257 276 272 284 252 216 135 117 106 104 114 122 133 140 144 149 153 157 155 153 158 168 165 162 168 179 179 177 174 176 172 175 173 176 168 178
264 236 186 188 215 238 245 248 263 284 292 286 244 167 142 133 127 128 131 131 131 132 138 143 144 152 156 159 164 170 170 170 173 185 188 183 177 180 175 178 175 170 174 183
269 273 230 196 212 224 240 264 275 260 279 278 270 233 178 159 155 147 136 133 134 132 137 142 145 150 157 163 168 174 176 178 179 183 192 192 187 187 181 186 185 175 177 173
256 262 246 208 214 229 223 236 248 258 255 275 291 326 80 136 136 135 134 125 121 130 138 140 145 149 151 153 163 175 181 179 183 189 193 190 192 189 181 190 181 168 170 179
256 264 260 242 218 217 232 242 244 251 265 269 275 286 86 105 110 109 110 111 110 116 127 131 132 138 148 157 164 172 178 180 182 186 189 189 185 179 185 195 180 173 180 192
283 260 260 242 214 206 226 234 244 254 265 264 259 234 130 119 118 110 111 106 104 113 118 129 137 145 160 164 169 175 173 175 174 174 179 178 178 188 197 195 185 185 187 193
268 253 256 258 263 257 246 245 245 246 252 261 261 257 239 185 142 133 129 125 124 138 132 143 154 159 162 167 171 171 172 167 164 161 168 175 184 191 198 191 188 192 190 194
247 256 269 272 272 269 270 261 258 254 255 261 269 268 255 234 201 176 153 135 145 165 152 153 162 162 162 165 172 170 168 166 166 163 172 186 191 188 189 193 199 196 192 202
245 265 279 273 267 274 270 258 257 257 257 259 268 273 266 247 219 188 162 145 158 166 144 139 157 162 174 178 175 169 169 173 167 170 183 187 188 187 189 192 203 200 197 207
251 258 273 272 271 273 262 249 247 260 258 258 261 264 239 234 234 211 169 163 170 144 138 149 160 168 185 187 168 169 179 184 178 178 181 184 187 192 195 202 196 201 203 209
256 259 263 268 269 257 260 253 256 264 268 272 265 252 218 215 88 68 145 145 125 131 130 108 75 41 170 166 162 169 173 185 188 181 177 183 192 195 195 185 186 204 211 208
241 249 254 256 260 265 256 254 272 286 284 289 276 229 90 86 15 156 78 68 82 89 93 92 67 29 34 85 169 169 181 195 199 195 190 189 186 184 185 184 200 213 215 213
231 241 244 249 259 261 251 305 311 286 277 357 31 117 109 180 240 219 83 72 69 71 70 69 61 32 55 31 88 172 184 191 199 201 195 184 179 173 181 200 219 215 202 209
232 237 239 249 255 261 328 1 320 257 340 21 9 65 73 301 10 78 79 74 70 60 61 59 61 47 61 67 196 215 203 203 193 173 174 176 172 172 182 202 214 199 192 197
241 244 247 251 251 256 39 39 339 352 7 6 13 27 34 46 60 73 76 77 77 57 41 33 33 40 48 37 256 229 196 153 130 134 163 176 180 184 185 176 199 197 183 204
237 244 257 255 267 340 347 352 357 348 342 1 11 24 36 40 62 80 82 84 88 78 9 343 13 79 16 329 296 252 145 132 138 152 170 178 179 180 184 176 197 200 188 216
263 271 267 267 261 285 312 335 341 348 351 1 10 7 1 340 44 92 137 159 156 184 299 322 181 175 280 294 301 15 120 146 159 166 175 185 182 179 162 162 189 180 177 221
290 290 270 267 273 290 305 331 336 339 338 343 352 344 334 330 312 290 245 223 180 102 19 291 239 218 280 284 0 74 117 149 169 165 166 175 150 140 141 125 78 163 183 216
274 273 269 276 295 295 301 317 313 306 309 321 322 315 321 323 304 298 285 244 107 131 275 250 205 188 242 263 45 63 126 161 171 163 155 144 130 144 164 145 80 42 171 181
Height
1477 1480 1482 1479 1478 1480 1480 1483 1484 1482 1478 1482 1485 1485 1484 1485 1488 1490 1492 1494 1496 1499 1502 1503 1506 1507 1509 1511 1513 1514 1516 1518 1519 1521 1522 1523 1524 1525 1525 1526 1526 1526 1527 1527
1478 1480 1476 1474 1476 1478 1480 1484 1484 1480 1477 1480 1483 1482 1479 1480 1483 1486 1488 1490 1493 1496 1499 1501 1503 1505 1507 1509 1511 1513 1515 1516 1518 1520 1521 1522 1523 1524 1525 1525 1526 1526 1526 1527
1479 1477 1474 1475 1477 1479 1480 1483 1483 1483 1480 1478 1481 1483 1477 1476 1478 1482 1485 1488 1490 1493 1496 1498 1501 1503 1505 1507 1509 1511 1513 1515 1517 1518 1520 1521 1522 1523 1524 1524 1525 1525 1526 1526
1474 1472 1473 1476 1478 1479 1484 1478 1479 1481 1486 1488 1483 1493 1478 1473 1476 1478 1482 1485 1488 1491 1493 1495 1498 1501 1503 1505 1507 1510 1512 1513 1515 1517 1518 1519 1520 1521 1522 1523 1523 1524 1525 1525
1473 1471 1473 1477 1477 1477 1479 1476 1478 1480 1484 1487 1482 1487 1479 1470 1475 1476 1478 1482 1485 1488 1491 1493 1496 1498 1501 1503 1506 1508 1510 1512 1513 1515 1516 1518 1519 1520 1521 1522 1522 1523 1523 1524
1469 1469 1471 1474 1475 1475 1475 1478 1479 1479 1484 1494 1479 1482 1481 1471 1470 1472 1475 1479 1483 1486 1489 1492 1494 1497 1499 1502 1504 1506 1508 1510 1512 1513 1514 1516 1518 1519 1520 1520 1521 1521 1522 1522
1471 1469 1469 1472 1475 1475 1477 1485 1496 1496 1497 1490 1468 1474 1477 1466 1465 1468 1473 1478 1481 1484 1487 1490 1492 1495 1497 1500 1502 1504 1507 1508 1510 1511 1513 1514 1516 1517 1518 1519 1519 1520 1520 1521
1476 1476 1469 1469 1474 1478 1477 1481 1496 1501 1495 1483 1470 1476 1472 1464 1467 1470 1473 1477 1480 1483 1486 1488 1490 1492 1495 1497 1500 1502 1504 1506 1508 1509 1511 1512 1514 1515 1516 1517 1518 1519 1519 1519
1474 1474 1464 1466 1469 1473 1477 1477 1474 1484 1483 1486 1476 1471 1468 1464 1468 1471 1474 1477 1480 1482 1485 1487 1489 1491 1493 1495 1498 1500 1502 1504 1506 1507 1509 1510 1512 1513 1514 1515 1516 1517 1517 1518
1469 1476 1466 1465 1468 1469 1472 1473 1478 1484 1495 1495 1482 1474 1474 1469 1470 1471 1474 1477 1480 1482 1484 1486 1487 1489 1491 1493 1496 1498 1500 1502 1503 1505 1506 1508 1509 1511 1512 1513 1514 1514 1515 1516
1468 1474 1470 1467 1470 1472 1472 1474 1476 1480 1482 1492 1494 1483 1462 1465 1466 1470 1473 1476 1479 1481 1483 1484 1486 1488 1490 1492 1494 1496 1498 1499 1501 1502 1504 1505 1507 1508 1509 1510 1511 1512 1513 1513
1467 1471 1473 1466 1461 1462 1467 1470 1475 1487 1485 1481 1487 1484 1461 1463 1466 1469 1472 1476 1478 1480 1482 1483 1485 1486 1488 1490 1491 1493 1495 1497 1498 1499 1501 1502 1504 1505 1506 1507 1508 1509 1510 1510
1470 1473 1478 1475 1470 1466 1466 1466 1468 1473 1478 1482 1487 1483 1463 1464 1467 1470 1473 1475 1478 1480 1481 1482 1484 1485 1486 1488 1489 1491 1492 1494 1495 1497 1498 1500 1501 1502 1503 1504 1505 1506 1507 1508
1470 1471 1475 1481 1473 1468 1468 1467 1466 1471 1480 1480 1477 1474 1468 1467 1468 1470 1472 1474 1477 1479 1480 1481 1482 1483 1485 1486 1487 1489 1490 1492 1493 1494 1495 1496 1497 1499 1500 1501 1502 1503 1504 1505
1468 1470 1467 1464 1461 1462 1463 1465 1466 1468 1469 1474 1470 1468 1467 1465 1467 1469 1471 1473 1476 1478 1479 1480 1481 1482 1483 1484 1486 1487 1488 1489 1490 1491 1492 1493 1495 1496 1497 1498 1499 1500 1501 1502
1466 1469 1468 1467 1461 1461 1462 1461 1462 1464 1464 1465 1465 1465 1461 1463 1465 1467 1470 1472 1474 1476 1477 1478 1479 1480 1481 1482 1483 1484 1486 1487 1488 1489 1490 1491 1492 1493 1494 1495 1496 1497 1498 1499
1466 1469 1473 1472 1464 1463 1465 1458 1458 1460 1458 1459 1464 1462 1460 1462 1464 1466 1468 1470 1472 1474 1475 1477 1478 1478 1480 1480 1481 1482 1483 1485 1485 1486 1487 1488 1489 1490 1491 1492 1492 1493 1494 1495
1466 1467 1469 1471 1470 1477 1460 1450 1452 1454 1454 1454 1455 1457 1458 1461 1463 1466 1467 1469 1471 1472 1473 1475 1476 1477 1478 1478 1479 1480 1481 1482 1483 1484 1484 1485 1486 1486 1487 1488 1489 1490 1490 1491
1460 1464 1469 1472 1473 1465 1457 1451 1452 1455 1456 1453 1454 1456 1458 1461 1463 1465 1467 1468 1469 1471 1472 1473 1474 1475 1476 1476 1477 1477 1478 1479 1480 1481 1481 1482 1482 1483 1484 1484 1485 1486 1487 1487
1457 1460 1467 1469 1473 1472 1459 1451 1450 1454 1459 1454 1454 1457 1459 1461 1465 1466 1466 1467 1468 1469 1471 1472 1472 1473 1473 1474 1474 1475 1475 1476 1476 1477 1478 1479 1480 1480 1480 1481 1482 1483 1483 1483
1462 1463 1466 1467 1468 1460 1454 1451 1452 1464 1463 1456 1455 1456 1459 1460 1463 1464 1465 1466 1467 1468 1469 1470 1470 1471 1471 1472 1472 1472 1472 1473 1473 1474 1475 1476 1477 1477 1477 1478 1479 1479 1479 1480
1461 1465 1465 1465 1467 1465 1455 1454 1457 1459 1456 1456 1457 1458 1459 1460 1462 1463 1464 1466 1466 1467 1468 1468 1468 1469 1469 1469 1469 1469 1469 1470 1470 1471 1472 1472 1473 1474 1474 1475 1475 1476 1476 1476
1457 1459 1460 1461 1463 1457 1456 1456 1457 1457 1457 1457 1458 1459 1460 1460 1461 1463 1464 1465 1465 1466 1466 1466 1466 1466 1466 1467 1467 1467 1467 1467 1467 1468 1469 1469 1470 1471 1471 1471 1472 1472 1473 1473
1454 1455 1456 1457 1456 1456 1456 1456 1457 1457 1458 1458 1458 1459 1459 1460 1461 1461 1462 1463 1464 1464 1464 1464 1464 1464 1464 1464 1464 1464 1464 1464 1465 1465 1466 1466 1467 1467 1468 1468 1469 1469 1469 1469
1456 1455 1455 1455 1455 1455 1456 1457 1457 1458 1458 1458 1458 1459 1459 1459 1459 1460 1461 1461 1461 1462 1462 1462 1462 1461 1461 1461 1461 1461 1461 1462 1462 1462 1463 1464 1464 1465 1465 1465 1466 1466 1467 1467
1455 1456 1456 1456 1455 1456 1456 1456 1457 1457 1457 1457 1457 1457 1458 1458 1458 1458 1458 1459 1459 1459 1459 1459 1459 1459 1459 1459 1459 1459 1459 1459 1459 1460 1460 1461 1461 1462 1462 1462 1463 1463 1464 1464